Location: Mohawk View
(42.7837°N, 73.7885°W)
Time: 02:20:01
(UTC+00:00)

Ariane Rocket - Pass Details

Date: 17 June 2021
Orbit: 759 x 771 km, 98.7° (Epoch: 02 August)

Event Time Altitude Azimuth Distance (km) Brightness Sun altitude
Exits shadow 01:10:37 - 167° (SSE) 3,235 5.8 -5.9°
Rises 01:10:38 0° 167° (SSE) 3,224 5.7 -5.9°
Reaches altitude 10° 01:12:56 10° 169° (SSE) 2,303 5.0 -6.3°
Maximum altitude 01:18:01 81° 256° (WSW) 786 3.2 -7.0°
Drops below altitude 10° 01:23:09 10° 344° (NNW) 2,323 6.5 -7.7°
Sets 01:25:29 0° 346° (NNW) 3,254 7.3 -8.0°
